User: anonymous   Login
Location: Bergnerzell
(49.1816°N, 10.2565°E)
Time: 08:03:07
(UTC+00:00)
Language:

Meteor 1-21 - Orbit

View from above orbital plane
View from above orbital plane
View from above satellite
View from above satellite

Ground track
Ground track

The orbit data is extracted from the following two-line orbital elements,

1 07714U 75023A   24202.89425888  .00000211  00000-0  11585-3 0  9995
2 07714  81.2067 188.8533 0030132 155.0428 205.2207 14.08286159849525
Epoch (UTC): 20 July 2024 21:27:43
Eccentricity: 0.0030132
inclination: 81.2067°
perigee height: 843 km
apogee height: 887 km
right ascension of ascending node: 188.8533°
argument of perigee: 155.0428°
revolutions per day: 14.08286159
mean anomaly at epoch: 205.2207°
orbit number at epoch: 84952

The dashed part of the orbit path shows where the satellite is in the earth's shadow,  

DLR